When you browse on this site, cookies collect data to enhance your experience and personalize the content and advertising you see.
Visit our Privacy Policy to learn more. By continuing to use the site, you agree to this use of cookies and data.
  • Em Portugal
  • Lista de países
  • Para 7 dias
  • Temperatura da água
  • Mapas de satélite
  • Mapa do tempo
  • Widgets de tempo
  • user-avatar
    Iniciar Sessão

    Previsão horária em Zarka

    Hoje, 17 Julho, Quarta-feira

    Tempo Temperatura Precipitação Vento Pressão Humidade
    00:00 +23°C° 0 mm 1 m/s 700 mmHg 45%
    01:00 +23°C° 0 mm 1 m/s 699 mmHg 44%
    02:00 +22°C° 0 mm 1 m/s 699 mmHg 43%
    03:00 +23°C° 0 mm 1 m/s 699 mmHg 42%
    04:00 +23°C° 0 mm 2 m/s 699 mmHg 40%
    05:00 +24°C° 0 mm 2 m/s 699 mmHg 39%
    06:00 +27°C° 0 mm 2 m/s 699 mmHg 33%
    07:00 +30°C° 0 mm 3 m/s 699 mmHg 28%
    08:00 +34°C° 0 mm 4 m/s 700 mmHg 22%
    09:00 +36°C° 0 mm 5 m/s 700 mmHg 20%
    10:00 +39°C° 0 mm 6 m/s 700 mmHg 19%
    11:00 +41°C° 0 mm 8 m/s 700 mmHg 17%
    12:00 +42°C° 0 mm 9 m/s 700 mmHg 16%
    13:00 +43°C° 0 mm 9 m/s 700 mmHg 16%
    14:00 +43°C° 0 mm 10 m/s 700 mmHg 16%
    15:00 +42°C° 0 mm 10 m/s 700 mmHg 19%
    16:00 +39°C° 0 mm 9 m/s 700 mmHg 22%
    17:00 +37°C° 0 mm 8 m/s 700 mmHg 25%
    18:00 +34°C° 0 mm 6 m/s 700 mmHg 30%
    19:00 +30°C° 0 mm 4 m/s 699 mmHg 36%
    20:00 +27°C° 0 mm 1 m/s 699 mmHg 41%
    21:00 +27°C° 0 mm 1 m/s 699 mmHg 42%
    22:00 +26°C° 0 mm 2 m/s 700 mmHg 43%
    23:00 +26°C° 0 mm 2 m/s 700 mmHg 44%

    Amanhã, 18 Julho, Quinta-feira

    Tempo Temperatura Precipitação Vento Pressão Humidade
    00:00 +25°C° 0 mm 2 m/s 699 mmHg 46%
    01:00 +25°C° 0 mm 3 m/s 699 mmHg 48%
    02:00 +25°C° 0 mm 3 m/s 699 mmHg 50%
    03:00 +24°C° 0 mm 3 m/s 699 mmHg 54%
    04:00 +24°C° 0 mm 3 m/s 699 mmHg 58%
    05:00 +22°C° 0 mm 3 m/s 700 mmHg 62%
    06:00 +25°C° 0 mm 4 m/s 700 mmHg 51%
    07:00 +28°C° 0 mm 5 m/s 701 mmHg 41%
    08:00 +30°C° 0 mm 6 m/s 701 mmHg 31%
    09:00 +32°C° 0 mm 6 m/s 701 mmHg 30%
    10:00 +33°C° 0 mm 7 m/s 701 mmHg 29%
    11:00 +34°C° 0 mm 7 m/s 701 mmHg 28%
    12:00 +35°C° 0 mm 8 m/s 701 mmHg 27%
    13:00 +35°C° 0 mm 9 m/s 701 mmHg 26%
    14:00 +37°C° 0 mm 10 m/s 701 mmHg 24%
    15:00 +35°C° 0 mm 9 m/s 701 mmHg 26%
    16:00 +33°C° 0 mm 9 m/s 700 mmHg 29%
    17:00 +32°C° 0 mm 9 m/s 700 mmHg 31%
    18:00 +28°C° 0 mm 7 m/s 700 mmHg 40%
    19:00 +25°C° 0 mm 5 m/s 701 mmHg 49%
    20:00 +22°C° 0 mm 3 m/s 701 mmHg 58%
    21:00 +21°C° 0 mm 2 m/s 701 mmHg 62%
    22:00 +21°C° 0 mm 2 m/s 701 mmHg 65%
    23:00 +20°C° 0 mm 2 m/s 701 mmHg 69%

    Depois de amanhã, 19 Julho, Sexta-feira

    Tempo Temperatura Precipitação Vento Pressão Humidade
    00:00 +19°C° 0 mm 2 m/s 701 mmHg 73%
    01:00 +19°C° 0 mm 2 m/s 701 mmHg 77%
    02:00 +19°C° 0 mm 2 m/s 701 mmHg 81%
    03:00 +18°C° 0 mm 2 m/s 701 mmHg 85%
    04:00 +18°C° 0 mm 2 m/s 701 mmHg 88%
    05:00 +18°C° 0 mm 2 m/s 701 mmHg 92%
    06:00 +20°C° 0 mm 3 m/s 701 mmHg 81%
    07:00 +22°C° 0 mm 3 m/s 702 mmHg 70%
    08:00 +25°C° 0 mm 3 m/s 702 mmHg 59%
    09:00 +27°C° 0 mm 4 m/s 702 mmHg 51%
    10:00 +29°C° 0 mm 4 m/s 702 mmHg 42%
    11:00 +32°C° 0 mm 4 m/s 703 mmHg 33%
    12:00 +33°C° 0 mm 4 m/s 702 mmHg 30%
    13:00 +34°C° 0 mm 5 m/s 702 mmHg 28%
    14:00 +35°C° 0 mm 5 m/s 702 mmHg 25%
    15:00 +34°C° 0 mm 6 m/s 702 mmHg 30%
    16:00 +33°C° 0 mm 7 m/s 701 mmHg 34%
    17:00 +32°C° 0 mm 8 m/s 701 mmHg 39%
    18:00 +28°C° 0 mm 6 m/s 701 mmHg 47%
    19:00 +26°C° 0 mm 5 m/s 701 mmHg 55%
    20:00 +22°C° 0 mm 3 m/s 701 mmHg 64%
    21:00 +21°C° 0 mm 3 m/s 701 mmHg 65%
    22:00 +20°C° 0 mm 2 m/s 701 mmHg 67%
    23:00 +19°C° 0 mm 2 m/s 701 mmHg 69%

    20 Julho, Sábado

    Tempo Temperatura Precipitação Vento Pressão Humidade
    00:00 +19°C° 0 mm 2 m/s 701 mmHg 67%
    01:00 +19°C° 0 mm 2 m/s 701 mmHg 66%
    02:00 +18°C° 0 mm 2 m/s 700 mmHg 65%
    03:00 +18°C° 0 mm 2 m/s 700 mmHg 67%
    04:00 +18°C° 0 mm 2 m/s 700 mmHg 69%
    05:00 +17°C° 0 mm 2 m/s 700 mmHg 71%
    06:00 +20°C° 0 mm 2 m/s 701 mmHg 63%
    07:00 +22°C° 0 mm 3 m/s 702 mmHg 54%
    08:00 +26°C° 0 mm 3 m/s 702 mmHg 46%
    09:00 +28°C° 0 mm 3 m/s 702 mmHg 41%
    10:00 +30°C° 0 mm 4 m/s 702 mmHg 35%
    11:00 +33°C° 0 mm 4 m/s 703 mmHg 30%
    12:00 +34°C° 0 mm 5 m/s 702 mmHg 28%
    13:00 +35°C° 0 mm 5 m/s 702 mmHg 25%
    14:00 +36°C° 0 mm 6 m/s 702 mmHg 23%
    15:00 +35°C° 0 mm 6 m/s 702 mmHg 29%
    16:00 +33°C° 0 mm 7 m/s 701 mmHg 35%
    17:00 +32°C° 0 mm 7 m/s 701 mmHg 41%
    18:00 +28°C° 0 mm 6 m/s 701 mmHg 51%
    19:00 +26°C° 0 mm 4 m/s 701 mmHg 61%
    20:00 +22°C° 0 mm 3 m/s 701 mmHg 72%
    21:00 +22°C° 0 mm 3 m/s 701 mmHg 74%
    22:00 +21°C° 0 mm 3 m/s 701 mmHg 77%
    23:00 +20°C° 0 mm 3 m/s 701 mmHg 79%

    21 Julho, Domingo

    Tempo Temperatura Precipitação Vento Pressão Humidade
    00:00 +20°C° 0 mm 2 m/s 701 mmHg 82%
    01:00 +19°C° 0 mm 2 m/s 701 mmHg 84%
    02:00 +19°C° 0 mm 2 m/s 700 mmHg 86%
    03:00 +18°C° 0 mm 2 m/s 700 mmHg 87%
    04:00 +18°C° 0 mm 2 m/s 700 mmHg 89%
    05:00 +18°C° 0 mm 2 m/s 700 mmHg 91%
    06:00 +20°C° 0 mm 2 m/s 701 mmHg 79%
    07:00 +24°C° 0 mm 2 m/s 701 mmHg 67%
    08:00 +26°C° 0 mm 3 m/s 702 mmHg 55%
    09:00 +29°C° 0 mm 3 m/s 702 mmHg 45%
    10:00 +31°C° 0 mm 3 m/s 702 mmHg 35%
    11:00 +35°C° 0 mm 2 m/s 702 mmHg 25%
    12:00 +36°C° 0 mm 3 m/s 702 mmHg 23%
    13:00 +37°C° 0 mm 4 m/s 702 mmHg 20%
    14:00 +40°C° 0 mm 4 m/s 701 mmHg 17%
    15:00 +39°C° 0 mm 5 m/s 701 mmHg 21%
    16:00 +37°C° 0 mm 5 m/s 701 mmHg 25%
    17:00 +36°C° 0 mm 6 m/s 701 mmHg 29%
    18:00 +33°C° 0 mm 5 m/s 701 mmHg 38%
    19:00 +29°C° 0 mm 4 m/s 701 mmHg 48%
    20:00 +26°C° 0 mm 3 m/s 700 mmHg 57%
    21:00 +25°C° 0 mm 3 m/s 700 mmHg 59%
    22:00 +25°C° 0 mm 2 m/s 700 mmHg 60%
    23:00 +24°C° 0 mm 2 m/s 700 mmHg 62%

    22 Julho, Segunda-feira

    Tempo Temperatura Precipitação Vento Pressão Humidade
    00:00 +24°C° 0 mm 2 m/s 700 mmHg 60%
    01:00 +23°C° 0 mm 2 m/s 700 mmHg 57%
    02:00 +23°C° 0 mm 2 m/s 700 mmHg 54%
    03:00 +21°C° 0 mm 2 m/s 700 mmHg 57%
    04:00 +22°C° 0 mm 1 m/s 700 mmHg 60%
    05:00 +21°C° 0 mm 1 m/s 700 mmHg 62%
    06:00 +24°C° 0 mm 1 m/s 700 mmHg 52%
    07:00 +27°C° 0 mm 1 m/s 701 mmHg 43%
    08:00 +30°C° 0 mm 2 m/s 701 mmHg 33%
    09:00 +32°C° 0 mm 2 m/s 701 mmHg 27%
    10:00 +36°C° 0 mm 2 m/s 702 mmHg 21%
    11:00 +39°C° 0 mm 2 m/s 702 mmHg 16%
    12:00 +40°C° 0 mm 2 m/s 701 mmHg 14%
    13:00 +41°C° 0 mm 2 m/s 701 mmHg 13%
    14:00 +42°C° 0 mm 2 m/s 700 mmHg 11%
    15:00 +43°C° 0 mm 3 m/s 700 mmHg 15%
    16:00 +42°C° 0 mm 5 m/s 700 mmHg 18%
    17:00 +41°C° 0 mm 7 m/s 699 mmHg 22%
    18:00 +36°C° 0 mm 5 m/s 699 mmHg 30%
    19:00 +33°C° 0 mm 4 m/s 699 mmHg 38%
    20:00 +29°C° 0 mm 3 m/s 699 mmHg 46%
    21:00 +28°C° 0 mm 3 m/s 699 mmHg 46%
    22:00 +28°C° 0 mm 3 m/s 699 mmHg 47%
    23:00 +27°C° 0 mm 3 m/s 699 mmHg 48%
    Mostrar mais